Location: Winthrop
(48.4780°N, 120.1850°W)
Time: 12:00:58
(UTC-07:00)

Vanguard 3 - Pass Details

Date: 11 February 2023
Orbit: 508 x 3249 km, 33.4° (Epoch: 28 March)

Event Time Altitude Azimuth Distance (km) Brightness Sun altitude
Rises 18:18:37 0° 241° (WSW) 3,526 11.9 -10.9°
Reaches altitude 10° 18:21:04 10° 230° (SW) 2,860 10.9 -11.3°
Maximum altitude 18:27:09 30° 171° (S) 2,371 9.5 -12.3°
Drops below altitude 10° 18:36:43 10° 118° (ESE) 4,609 10.5 -13.9°
Enters shadow 18:37:35 - 116° (ESE) 4,857 10.6 -14.0°
